Florennes, Belgium

9:57 AM CEST on April 22, 2018 (GMT +0200)
Florennes Air Base

Weather History for EBFS - May, 2013

Change the Weather History Date:

Sunday, May 19, 2013

  Actual Average Record
Temperature  
Mean Temperature 50 °F -  
Max Temperature 55 °F 61 °F 75 °F (2014)
Min Temperature 44 °F 50 °F 41 °F (2015)
Degree Days  
Heating Degree Days 16    
Moisture  
Dew Point 49 °F    
Average Humidity 95    
Maximum Humidity 100    
Minimum Humidity 79    
Precipitation  
Precipitation 0.35 in - - ()
Sea Level Pressure  
Sea Level Pressure 29.78 in    
Wind  
Wind Speed 5 mph ()    
Max Wind Speed 13 mph    
Max Gust Speed -    
Visibility 4.4 miles    
Events Fog , Rain    
Averages and records for this station are not official NWS values.
T = Trace of Precipitation, MM = Missing Value Source: Averaged Metar Reports

Daily Weather History Graph

Daily Weather History Graph

Search for Another Location

Airport or City:

Astronomy

May. 19, 2013 Rise Set
Actual Time 5:49 AM CEST 9:27 PM CEST
Civil Twilight 5:08 AM CEST 10:08 PM CEST
Nautical Twilight 4:13 AM CEST 11:03 PM CEST
Astronomical Twilight 2:54 AM CEST 12:25 AM CEST
Moon 2:39 PM CEST (5/19) 2:43 AM CEST (5/19)
Length of Visible Light 16h 59m
Length of Day
15h 38m
Waxing Gibbous, 62% of the Moon is Illuminated
May 19
Waxing Gibbous
May 25
Full
May 31
Last Quarter
Jun 8
New
Jun 16
First Quarter

Hourly Weather History & Observations

Time (CEST) Temp. Windchill Dew Point Humidity Pressure Visibility Wind Dir Wind Speed Gust Speed Precip Events Conditions
12:25 AM 48.2 °F - 46.4 °F 93% 29.74 in 6.2 mi NE 5.8 mph - N/A   Scattered Clouds
12:55 AM 48.2 °F - 46.4 °F 93% 29.77 in 6.2 mi ENE 4.6 mph - N/A   Scattered Clouds
1:25 AM 48.2 °F - 46.4 °F 93% 29.77 in 6.2 mi ENE 4.6 mph - N/A   Mostly Cloudy
1:55 AM 48.2 °F - 46.4 °F 93% 29.77 in 6.2 mi East 3.5 mph - N/A   Mostly Cloudy
2:00 AM 48 °F - 47 °F 93% 29.78 in 8 mi NE 4.5 mph - -   Mostly Cloudy
2:25 AM 46.4 °F - 46.4 °F 100% 29.77 in 6.2 mi Variable 2.3 mph - N/A   Mostly Cloudy
2:55 AM 44.6 °F 41.4 °F 44.6 °F 100% 29.74 in 6.2 mi NNE 5.8 mph - N/A   Scattered Clouds
3:25 AM 44.6 °F 41.4 °F 44.6 °F 100% 29.74 in 6.2 mi NNE 5.8 mph - N/A   Mostly Cloudy
3:55 AM 46.4 °F - 44.6 °F 93% 29.74 in 6.2 mi Variable 1.2 mph - N/A   Mostly Cloudy
4:25 AM 46.4 °F - 44.6 °F 93% 29.74 in 5.6 mi Variable 1.2 mph - N/A   Mostly Cloudy
4:54 AM 44.6 °F 42.2 °F 44.6 °F 100% 29.74 in 4.3 mi ENE 4.6 mph - N/A   Partly Cloudy
4:55 AM 44.6 °F 43.1 °F 44.6 °F 100% 29.74 in 3.1 mi East 3.5 mph - N/A   Partly Cloudy
5:00 AM 45 °F - 44 °F 97% 29.78 in 3 mi ENE 4.5 mph - -   Mist
5:01 AM 44.6 °F 43.1 °F 44.6 °F 100% 29.74 in 2.8 mi East 3.5 mph - N/A   Partly Cloudy
5:05 AM 44.6 °F 42.2 °F 44.6 °F 100% 29.74 in - East 4.6 mph - N/A   Partly Cloudy
5:25 AM 44.6 °F 43.1 °F 44.6 °F 100% 29.74 in 1.2 mi East 3.5 mph - N/A Fog Fog
5:55 AM 44.6 °F 42.2 °F 44.6 °F 100% 29.74 in 1.2 mi East 4.6 mph - N/A Fog Fog
6:25 AM 44.6 °F 42.2 °F 44.6 °F 100% 29.74 in 1.6 mi East 4.6 mph - N/A Fog Fog
6:55 AM 46.4 °F 45.2 °F 44.6 °F 93% 29.74 in - SE 3.5 mph - N/A   Scattered Clouds
7:25 AM 46.4 °F - 46.4 °F 100% 29.74 in 1.7 mi East 2.3 mph - N/A   Scattered Clouds
7:55 AM 46.4 °F - 46.4 °F 100% 29.77 in 1.8 mi East 2.3 mph - N/A   Scattered Clouds
8:00 AM 47 °F - 46 °F 95% 29.78 in 2 mi East 2.2 mph - -   Mist
8:25 AM 48.2 °F - 46.4 °F 93% 29.77 in - Variable 3.5 mph - N/A   Scattered Clouds
8:43 AM 48.2 °F - 48.2 °F 100% 29.77 in - Variable 3.5 mph - N/A   Scattered Clouds
8:55 AM 48.2 °F - 48.2 °F 100% 29.77 in - East 3.5 mph - N/A   Scattered Clouds
9:25 AM 50.0 °F - 48.2 °F 94% 29.77 in - Variable 3.5 mph - N/A   Mostly Cloudy
9:34 AM 50.0 °F - 48.2 °F 94% 29.77 in 3.1 mi Variable 3.5 mph - N/A   Mostly Cloudy
9:55 AM 51.8 °F - 48.2 °F 88% 29.77 in 3.7 mi NNE 2.3 mph - N/A   Mostly Cloudy
10:25 AM 53.6 °F - 50.0 °F 88% 29.77 in 4.3 mi Variable 2.3 mph - N/A   Mostly Cloudy
10:40 AM 53.6 °F - 48.2 °F 82% 29.74 in 5.0 mi Variable 3.5 mph - N/A   Mostly Cloudy
10:55 AM 53.6 °F - 50.0 °F 88% 29.77 in 5.0 mi NNE 3.5 mph - N/A   Mostly Cloudy
11:00 AM 54 °F - 50 °F 81% 29.76 in 5 mi NNE 6.7 mph - -   Scattered Clouds
11:25 AM 53.6 °F - 50.0 °F 88% 29.77 in 5.0 mi North 4.6 mph - N/A   Mostly Cloudy
11:55 AM 53.6 °F - 50.0 °F 88% 29.77 in 5.0 mi Variable 3.5 mph - N/A   Mostly Cloudy
12:25 PM 55.4 °F - 50.0 °F 82% 29.77 in 4.3 mi Variable 2.3 mph - N/A   Mostly Cloudy
12:37 PM 55.4 °F - 51.8 °F 88% 29.77 in 4.3 mi Variable 2.3 mph - N/A   Mostly Cloudy
12:55 PM 55.4 °F - 50.0 °F 82% 29.77 in 4.3 mi Variable 3.5 mph - N/A   Mostly Cloudy
1:25 PM 53.6 °F - 50.0 °F 88% 29.77 in 4.3 mi NW 5.8 mph - N/A Rain Light Rain
1:55 PM 55.4 °F - 50.0 °F 82% 29.77 in 3.7 mi West 3.5 mph - N/A   Mostly Cloudy
2:00 PM 55 °F - 50 °F 79% 29.79 in 4 mi West 6.7 mph - - Rain Light Rain
2:02 PM 55.4 °F - 50.0 °F 82% 29.80 in 4.3 mi West 5.8 mph - N/A   Mostly Cloudy
2:25 PM 55.4 °F - 51.8 °F 88% 29.77 in 3.7 mi West 9.2 mph - N/A   Mostly Cloudy
2:55 PM 55.4 °F - 51.8 °F 88% 29.77 in 3.7 mi West 9.2 mph - N/A Rain Light Rain
3:25 PM 53.6 °F - 51.8 °F 94% 29.77 in 3.7 mi West 10.4 mph - N/A Rain Light Rain
3:55 PM 53.6 °F - 51.8 °F 94% 29.77 in 3.7 mi West 11.5 mph - N/A Rain Light Rain
4:19 PM 53.6 °F - 51.8 °F 94% 29.77 in - West 10.4 mph - N/A Rain Light Rain
4:25 PM 53.6 °F - 51.8 °F 94% 29.77 in - West 11.5 mph - N/A Rain Light Rain
4:35 PM 53.6 °F - 51.8 °F 94% 29.80 in - West 11.5 mph - N/A Rain Light Rain
4:55 PM - - 51.8 °F N/A% 29.80 in - WSW 10.4 mph - N/A Rain Rain
5:00 PM 52 °F - 52 °F 98% 29.80 in 2 mi WSW 11.2 mph - - Rain Rain
5:25 PM 51.8 °F - 51.8 °F 100% 29.80 in - West 9.2 mph - N/A Rain Rain
5:42 PM 51.8 °F - 51.8 °F 100% 29.80 in 2.8 mi West 11.5 mph - N/A Rain Light Rain
5:55 PM 51.8 °F - 51.8 °F 100% 29.80 in - West 10.4 mph - N/A Rain Rain
6:17 PM 50.0 °F - 50.0 °F 100% 29.80 in - West 9.2 mph - N/A Rain Rain
6:25 PM 50.0 °F - 50.0 °F 100% 29.80 in 2.8 mi WSW 9.2 mph - N/A Rain Rain
6:55 PM 50.0 °F - 50.0 °F 100% 29.80 in 2.8 mi West 10.4 mph - N/A Rain Rain
7:25 PM 50.0 °F - 50.0 °F 100% 29.80 in 4.3 mi West 11.5 mph - N/A Rain Light Rain
7:47 PM 50.0 °F - 50.0 °F 100% 29.80 in 5.6 mi West 11.5 mph - N/A Rain Light Rain
7:52 PM 50.0 °F - 50.0 °F 100% 29.80 in 5.6 mi West 11.5 mph - N/A Rain Light Rain
7:55 PM 50.0 °F - 50.0 °F 100% 29.80 in 4.3 mi West 10.4 mph - N/A Rain Light Rain
8:00 PM 50 °F - 50 °F 99% 29.80 in 4 mi West 11.2 mph - - Rain Light Rain
8:25 PM 50.0 °F - 50.0 °F 100% 29.80 in 6.2 mi West 12.7 mph - N/A   Mostly Cloudy
8:55 PM 50.0 °F - 50.0 °F 100% 29.80 in 6.2 mi West 10.4 mph - N/A   Mostly Cloudy
9:25 PM 50.0 °F - 50.0 °F 100% 29.80 in 6.2 mi West 11.5 mph - N/A   Mostly Cloudy
9:55 PM 50.0 °F - 50.0 °F 100% 29.80 in 6.2 mi West 10.4 mph - N/A   Mostly Cloudy
10:22 PM 50.0 °F - 50.0 °F 100% 29.80 in 6.2 mi West 10.4 mph - N/A   Mostly Cloudy
10:25 PM 50.0 °F - 50.0 °F 100% 29.80 in 6.2 mi West 11.5 mph - N/A   Mostly Cloudy
10:42 PM 50.0 °F - 50.0 °F 100% 29.80 in 5.6 mi West 11.5 mph - N/A   Mostly Cloudy
10:55 PM 50.0 °F - 50.0 °F 100% 29.80 in 6.2 mi West 10.4 mph - N/A   Mostly Cloudy
11:00 PM 50 °F - 49 °F 97% 29.82 in 5 mi West 11.2 mph - -   Partly Cloudy
11:25 PM 50.0 °F - 50.0 °F 100% 29.80 in - West 9.2 mph - N/A   Mostly Cloudy
11:48 PM 50.0 °F - 50.0 °F 100% 29.80 in 1.1 mi West 6.9 mph - N/A   Mostly Cloudy
11:55 PM 50.0 °F - 50.0 °F 100% 29.80 in 6.2 mi West 6.9 mph - N/A   Mostly Cloudy